Retour au catalogue

CZ-3A DEB

ActifHEO
NORAD 35557·DEBRIS·🇨🇳 China

Lancé Feb 2, 2007 depuis Xichang Satellite Launch Center

Loading…

Prochains Passages (prochaines 24 heures)

TLE

FraisSource: Space-Track

Époque: Sep 9, 2026, 22:46 UTC

1 35557U 07003R   26252.94916115  .00001575  00000-0  24299-2 0  9994
2 35557  23.3322  36.4240 6348947  47.8589 350.9406  3.41915392 25420

Suivez CZ-3A DEB en temps réel avec AllMySat

Download on the App Store